Voltar ao catálogo

SEMI-1N

AtivoCiênciaVLEO
NORAD 66297·PAYLOAD·🇹🇷 Turkey

Lançado Nov 2, 2025 de Cape Canaveral Space Force Station

Loading…

Próximas Passagens (próximas 24 horas)

TLE

AtualizadoSource: Space-Track

Época: Sep 14, 2026, 08:22 UTC

1 66297U 25248E   26257.34930184  .00004294  00000-0  19799-3 0  9992
2 66297  45.4061 359.5452 0009591 187.5725 172.5018 15.21800187 48137

Acompanhe SEMI-1N em tempo real com AllMySat

Download on the App Store